STARLINK-38159, 100186

Orbit data source: Space-Track

STARLINK-38159, 100186 is a payload satellite owned by SpaceX/Seattle (US) in SSO that was launched on Sat, 01 Aug 2026 UTC launched from the Air Force Western Test Range (AFWTR). Payload-class satellites include a variety of spacecraft equipped with specific instruments for various scientific and technological missions. These include communications satellites like Starlink; space stations such as the ISS; scientific satellites like the Hubble; Earth observation satellites from companies like Planet Labs, Umbra, and HawkEye 360; GPS; miniature CubeSats for education and research; and military/defense satellites.

Loading next visibility...
Identifier
100186, 2026-175H
Orbit
SSO
Country
Flag of USUS
Related business
Manufacturer
SpaceX/Seattle
Mission
Operational spacecraft
Bus & Motor
STARLINK V2MO, Unknown motor
Mass
575 kg wet, ~530 kg dry
Launch date (UTC)
2026-08-01 (1 month ago)
Launch vehicle
Unknown
Launch site
Air Force Western Test Range (AFWTR)
Object type
Payload
Rocket body
Debris
Shape & HBR
BOX + PAN, 17.7 m
Radar Cross Section
Large (>1 m²)

Expand to show TLE details & history
Last TLE update: 8 hours ago

TLE from 8 hours ago
0 STARLINK-38159
1 A0186U 26175H   26249.55608543  .00176275  00000-0  11567-2 0  9995
2 A0186  97.2835  91.3417 0002609 349.0851  11.0357 15.75222655  6983
Epoch: 2026-09-06T13:20Z
TLE epoch observation values (Epoch: 2026-09-06T13:20:45.781Z)
Latitude
-0.00002°
Longitude
-94.49856°
Altitude
345.444 km
Speed
7.703 km/s
True Right ascension
06h 05m 22s
True Declination
0° 00' 00"
Sunlit
Object was in daylight at epoch
Visualization orbit readout
Latitude
Unknown
Longitude
Unknown
Altitude
Unknown
Speed
Unknown
Apparent Right ascension
Unknown
Apparent Declination
Unknown
Sunlit
N/A
Visualization observer readout
Local Sidereal Time
13:46:58
Azimuth
Unknown
Elevation
Unknown
Doppler factor
Unknown
Orbital elements
Apogee altitude
342.638 km
Perigee altitude
339.132 km
Semi-major axis
6,719.022 km
Eccentricity
0.00026
Inclination
97.2835°
RAAN
91.3417°
Arg. of periapsis
349.0851°
True anomaly
11.04142°
Mean anomaly
11.0357°
Eccentric anomaly
11.03856°
Mean motion
3.9408 °/min
Orbital period
91.35 mins
BSTAR
0.0011567
Loading maneuver chart data...
Computing Atmospheric mass density...
Loading historical data...
Loading historical data...
Loading historical data...
Loading historical data...
Loading historical data...
Loading historical data...
Loading historical data...

Documentation

Showing up to 5 results
|